Regional Weather Roundup
Issued by NWS

Home | Current Version | Previous Version | Text Only | Print | Product List | Glossary On
Versions: 1 2 3 4 5 6 7 8 9 10 11 12 13 14 15 16 17 18 19 20 21 22 23 24 25 26 27 28 29 30 31 32 33 34 35 36 37 38 39 40 41 42 43 44 45 46 47 48 49 50
298
ASUS42 KFFC 281303
RWRGA
WEATHER ROUNDUP FOR GEORGIA
NATIONAL WEATHER SERVICE PEACHTREE CITY GA
900 AM EDT SUN AUG 28 2016

NOTE: "FAIR" INDICATES FEW OR NO CLOUDS BELOW 12,000 FEET WITH NO
SIGNIFICANT WEATHER AND/OR OBSTRUCTIONS TO VISIBILITY.

* = USE WITH CAUTION. THE STATIONS MARKED WITH AN ASTERISK MAY NOT
REPORT WEATHER SUCH AS PRECIPITATION, FOG, OR THUNDER AND ARE NOT
QUALITY CONTROLLED BY NWS.

THE REMARK "TC" DENOTES TEMPERATURE READING IN DEGREES CELSIUS.

GAZ001>058-281400-
NORTH GEORGIA

CITY           SKY/WX    TMP DP  RH WIND       PRES   REMARKS
ATLANTA        MOSUNNY   77  71  82 E7        30.18R
ATHENS         PTSUNNY   75  72  90 NE5       30.18R
CHAMBLEE       MOSUNNY   76  69  79 E7        30.19R
PEACHTREE CITY SUNNY     76  71  85 E3        30.17R
ROME           SUNNY     77  70  79 N5        30.17R
WEST ATLANTA   SUNNY     77  70  79 NE6       30.17R
GAINESVILLE    PTSUNNY   75  68  78 E7        30.23R
CARTERSVILLE   PTSUNNY   76  70  82 NE3       30.18R


CITY           SKY/WX    TMP DP  RH WIND       PRES   REMARKS
DALTON*        SUNNY     73  72  94 CALM      30.19R
LAWRENCEVILLE* PTSUNNY   75  70  83 NE6       30.19R
KENNESAW*        N/A     73  68  83 E3        30.16R
CANTON*        MOSUNNY  N/A N/A N/A E5        30.21S
BLAIRSVILLE*     N/A    N/A N/A N/A MISG      30.26R
$$

GAZ059>098-102>109-281400-
CENTRAL GEORGIA

CITY           SKY/WX    TMP DP  RH WIND       PRES   REMARKS
AUGUSTA-BUSH   MOSUNNY   80  71  74 CALM      30.14R
AUGUSTA-DANIEL PTSUNNY   80  70  71 CALM      30.15S
COLUMBUS       SUNNY     77  70  79 E9        30.12R
MACON          SUNNY     77  69  76 NE6       30.14R
ROBINS AFB     SUNNY     76  71  84 NE5       30.13R


CITY           SKY/WX    TMP DP  RH WIND       PRES   REMARKS
LAGRANGE*      SUNNY     78  71  80 E3        30.16R
MILLEDGEVILLE* MOSUNNY   77  73  88 CALM      30.15S
$$

GAZ099>101-110>166-281400-
SOUTH GEORGIA

CITY           SKY/WX    TMP DP  RH WIND       PRES   REMARKS
SAVANNAH       MOSUNNY   82  73  74 NE8       30.10S
VALDOSTA       SUNNY     80  77  90 E6        30.07R
ALMA           MOSUNNY   79  74  84 E5        30.09S
ST SIMONS      MOSUNNY   84  72  67 MISG      30.06S
FT STEWART     SUNNY     79  74  84 NE7       30.07S HAZE
ALBANY         SUNNY     80  73  79 E8        30.11R
HUNTER AFB     SUNNY     81  79  94 NE9       30.07S HX  91
MOODY AFB      SUNNY     79  73  82 NE6       30.07R
BRUNSWICK      MOSUNNY   84  77  79 NE12      30.08R HX  94


CITY           SKY/WX    TMP DP  RH WIND       PRES   REMARKS
BAINBRIDGE*    MOSUNNY   81  75  83 CALM      30.07R
MOULTRIE*      SUNNY     79  73  83 E5        30.09R
VIDALIA*       SUNNY     79  77  94 E6        30.12S
WAYCROSS*        N/A     81  78  90 E7        30.09R HX  90
DOUGLAS*       SUNNY     79  72  78 E6        30.11R
$$




USA.gov is the U.S. government's official web portal to all federal, state and local government web resources and services.